STARLINK-33871 (63994 NORAD) Tracking and Keplerian Element Data

This shows tracking and keplerian element data for the satellite.

Feedback or suggestion? Click here.




ElementValue
Catalog63994
NameSTARLINK-33871
Epoch Orbit3479
Epoch Day353.99741541
Epoch Year2025
RAAN88.343
Inclination43.0063
Eccentricity0.0002087
Argument of Perigee286.6876
Mean Anonmoly73.3747
Mean Motion15.27584553
Decay Rate0.00014641
L11 63994U 25101A 25353.99741541 .00014641 00000+0 54043-3 0 9992
L22 63994 43.0063 88.3430 0002087 286.6876 73.3747 15.27584553 34794



Live tracking and technical data element details for STARLINK-33871 (NORAD 63994). STARLINK-33871 can be tracked NOW for your location showing map with azimuth and elevation plus other details from your city location.







IsCatalogInMostPopularTable: catalog: 63994, numindb: 7
Update: records affected: 1



GetName: 63994 STARLINK-33871

Hit Count: updated at: Sun, 19 Apr 2026 08:03:33 GMT